date,pm2.5
01/01/2018 00:00,12.75
01/01/2018 01:00,14.5
01/01/2018 02:00,13.25
01/01/2018 03:00,14.5
01/01/2018 04:00,14
01/01/2018 05:00,8.75
01/01/2018 06:00,10.25
01/01/2018 07:00,8
01/01/2018 08:00,8.25
01/01/2018 09:00,9
01/01/2018 10:00,11.25
01/01/2018 11:00,17.25
01/01/2018 12:00,15.25
01/01/2018 13:00,16.25
01/01/2018 14:00,15.25
01/01/2018 15:00,9.75
01/01/2018 16:00,9.75
01/01/2018 17:00,13.5
01/01/2018 18:00,18
01/01/2018 19:00,16.75
01/01/2018 20:00,14.75
01/01/2018 21:00,18.25
01/01/2018 22:00,12.5
01/01/2018 23:00,10.75
02/01/2018 00:00,10
02/01/2018 01:00,10.25
02/01/2018 02:00,11.25
02/01/2018 03:00,12.75
02/01/2018 04:00,15.5
02/01/2018 05:00,15.25
02/01/2018 06:00,11
02/01/2018 07:00,14.5
02/01/2018 08:00,16.5
02/01/2018 09:00,17.75
02/01/2018 10:00,17.75
02/01/2018 11:00,19.5
02/01/2018 12:00,17
02/01/2018 13:00,14.25
02/01/2018 14:00,15.5
02/01/2018 15:00,17.5
02/01/2018 16:00,19.75
02/01/2018 17:00,23.75
02/01/2018 18:00,55.25
02/01/2018 19:00,103
02/01/2018 20:00,11.5
02/01/2018 21:00,13.75
02/01/2018 22:00,7
02/01/2018 23:00,8
03/01/2018 00:00,11
03/01/2018 01:00,10.25
03/01/2018 02:00,9.25
03/01/2018 03:00,13
03/01/2018 04:00,11.75
03/01/2018 05:00,8
03/01/2018 06:00,8.75
03/01/2018 07:00,10.75
03/01/2018 08:00,11
03/01/2018 09:00,15
03/01/2018 10:00,18.25
03/01/2018 11:00,17
03/01/2018 12:00,11.25
03/01/2018 13:00,11.75
03/01/2018 14:00,12
03/01/2018 15:00,15.5
03/01/2018 16:00,18.75
03/01/2018 17:00,22.5
03/01/2018 18:00,17
03/01/2018 19:00,15.5
03/01/2018 20:00,19.25
03/01/2018 21:00,17.75
03/01/2018 22:00,18.25
03/01/2018 23:00,13.5
04/01/2018 00:00,16
04/01/2018 01:00,18.5
04/01/2018 02:00,17
04/01/2018 03:00,17.25
04/01/2018 04:00,20
04/01/2018 05:00,23.25
04/01/2018 06:00,20
04/01/2018 07:00,17
04/01/2018 08:00,16.66666667
04/01/2018 09:00,16.25
04/01/2018 10:00,16
04/01/2018 11:00,13.75
04/01/2018 12:00,20.25
04/01/2018 13:00,31.5
04/01/2018 14:00,24.25
04/01/2018 15:00,16.25
04/01/2018 16:00,16
04/01/2018 17:00,12.25
04/01/2018 18:00,10
04/01/2018 19:00,10.5
04/01/2018 20:00,12.5
04/01/2018 21:00,13.5
04/01/2018 22:00,12
04/01/2018 23:00,13
05/01/2018 00:00,14.75
05/01/2018 01:00,10.5
05/01/2018 02:00,8.75
05/01/2018 03:00,10
05/01/2018 04:00,15.5
05/01/2018 05:00,14.75
05/01/2018 06:00,16
05/01/2018 07:00,13.5
05/01/2018 08:00,16.5
05/01/2018 09:00,20
05/01/2018 10:00,18
05/01/2018 11:00,21.75
05/01/2018 12:00,22.5
05/01/2018 13:00,18
05/01/2018 14:00,17.75
05/01/2018 15:00,18
05/01/2018 16:00,23.5
05/01/2018 17:00,32
05/01/2018 18:00,36.5
05/01/2018 19:00,41.5
05/01/2018 20:00,47
05/01/2018 21:00,54
05/01/2018 22:00,49.25
05/01/2018 23:00,40.75
06/01/2018 00:00,29.75
06/01/2018 01:00,24
06/01/2018 02:00,18.25
06/01/2018 03:00,17
06/01/2018 04:00,10.25
06/01/2018 05:00,8
06/01/2018 06:00,7.75
06/01/2018 07:00,7.75
06/01/2018 08:00,9.75
06/01/2018 09:00,9.666666667
06/01/2018 10:00,11.25
06/01/2018 11:00,13.75
06/01/2018 12:00,17.75
06/01/2018 13:00,15.25
06/01/2018 14:00,18.75
06/01/2018 15:00,17.75
06/01/2018 16:00,18.25
06/01/2018 17:00,22.5
06/01/2018 18:00,24.75
06/01/2018 19:00,25.75
06/01/2018 20:00,23.75
06/01/2018 21:00,26.75
06/01/2018 22:00,17.33333333
06/01/2018 23:00,11
07/01/2018 00:00,11
07/01/2018 01:00,16.5
07/01/2018 02:00,15.25
07/01/2018 03:00,12.5
07/01/2018 04:00,3.25
07/01/2018 05:00,7.5
07/01/2018 06:00,9
07/01/2018 07:00,9
07/01/2018 08:00,9
07/01/2018 09:00,9.5
07/01/2018 10:00,11.25
07/01/2018 11:00,11.33333333
07/01/2018 12:00,11.5
07/01/2018 13:00,15.5
07/01/2018 14:00,14.25
07/01/2018 15:00,16.5
07/01/2018 16:00,20
07/01/2018 17:00,16.5
07/01/2018 18:00,15
07/01/2018 19:00,17
07/01/2018 20:00,20.75
07/01/2018 21:00,16
07/01/2018 22:00,21
07/01/2018 23:00,15.66666667
08/01/2018 00:00,9.5
08/01/2018 01:00,10.25
08/01/2018 02:00,8
08/01/2018 03:00,8
08/01/2018 04:00,8.75
08/01/2018 05:00,10.25
08/01/2018 06:00,8.75
08/01/2018 07:00,11.25
08/01/2018 08:00,12.75
08/01/2018 09:00,14.75
08/01/2018 10:00,13
08/01/2018 11:00,10.75
08/01/2018 12:00,14
08/01/2018 13:00,16.5
08/01/2018 14:00,14.5
08/01/2018 15:00,15.5
08/01/2018 16:00,21.25
08/01/2018 17:00,16.5
08/01/2018 18:00,19
08/01/2018 19:00,23.25
08/01/2018 20:00,24.75
08/01/2018 21:00,18
08/01/2018 22:00,18.5
08/01/2018 23:00,18.25
09/01/2018 00:00,14.5
09/01/2018 01:00,19.5
09/01/2018 02:00,20.5
09/01/2018 03:00,20
09/01/2018 04:00,23
09/01/2018 05:00,23.5
09/01/2018 06:00,25
09/01/2018 07:00,26
09/01/2018 08:00,30
09/01/2018 09:00,32.75
09/01/2018 10:00,32
09/01/2018 11:00,32.25
09/01/2018 12:00,33.25
09/01/2018 13:00,32.5
09/01/2018 14:00,29.25
09/01/2018 15:00,33.75
09/01/2018 16:00,34.25
09/01/2018 17:00,28.5
09/01/2018 18:00,26.25
09/01/2018 19:00,25.75
09/01/2018 20:00,32.25
09/01/2018 21:00,34.25
09/01/2018 22:00,30.25
09/01/2018 23:00,32.75
10/01/2018 00:00,29.5
10/01/2018 01:00,32
10/01/2018 02:00,33.5
10/01/2018 03:00,29.5
10/01/2018 04:00,30.25
10/01/2018 05:00,27.75
10/01/2018 06:00,25
10/01/2018 07:00,21
10/01/2018 08:00,26.5
10/01/2018 09:00,25.75
10/01/2018 10:00,28.5
10/01/2018 11:00,30.75
10/01/2018 12:00,34.25
10/01/2018 13:00,37.5
10/01/2018 14:00,35.5
10/01/2018 15:00,32.5
10/01/2018 16:00,29
10/01/2018 17:00,33.5
10/01/2018 18:00,37.75
10/01/2018 19:00,35.25
10/01/2018 20:00,30
10/01/2018 21:00,29.5
10/01/2018 22:00,30.25
10/01/2018 23:00,34.5
11/01/2018 00:00,26.5
11/01/2018 01:00,25.75
11/01/2018 02:00,25.75
11/01/2018 03:00,19
11/01/2018 04:00,17.5
11/01/2018 05:00,12.75
11/01/2018 06:00,12
11/01/2018 07:00,12.25
11/01/2018 08:00,15.25
11/01/2018 09:00,20.5
11/01/2018 10:00,16.25
11/01/2018 11:00,18.5
11/01/2018 12:00,21.5
11/01/2018 13:00,18
11/01/2018 14:00,20.5
11/01/2018 15:00,20.25
11/01/2018 16:00,26
11/01/2018 17:00,31.75
11/01/2018 18:00,35.5
11/01/2018 19:00,50
11/01/2018 20:00,52
11/01/2018 21:00,50.25
11/01/2018 22:00,52
11/01/2018 23:00,46.5
12/01/2018 00:00,44
12/01/2018 01:00,49.5
12/01/2018 02:00,50.5
12/01/2018 03:00,58.5
12/01/2018 04:00,62.5
12/01/2018 05:00,68
12/01/2018 06:00,59
12/01/2018 07:00,46
12/01/2018 08:00,34.75
12/01/2018 09:00,39.75
12/01/2018 10:00,47
12/01/2018 11:00,42
12/01/2018 12:00,35.66666667
12/01/2018 13:00,29.75
12/01/2018 14:00,26.75
12/01/2018 15:00,29.75
12/01/2018 16:00,33.25
12/01/2018 17:00,38
12/01/2018 18:00,40
12/01/2018 19:00,37.5
12/01/2018 20:00,38.5
12/01/2018 21:00,35.75
12/01/2018 22:00,31.75
12/01/2018 23:00,31.5
13/01/2018 00:00,33.25
13/01/2018 01:00,34
13/01/2018 02:00,33.5
13/01/2018 03:00,30.75
13/01/2018 04:00,26
13/01/2018 05:00,22
13/01/2018 06:00,20.5
13/01/2018 07:00,23.75
13/01/2018 08:00,19.75
13/01/2018 09:00,20.5
13/01/2018 10:00,26.5
13/01/2018 11:00,29.25
13/01/2018 12:00,24
13/01/2018 13:00,24.66666667
13/01/2018 14:00,26.5
13/01/2018 15:00,29
13/01/2018 16:00,33.75
13/01/2018 17:00,39.25
13/01/2018 18:00,39.5
13/01/2018 19:00,38
13/01/2018 20:00,38.25
13/01/2018 21:00,39
13/01/2018 22:00,39.25
13/01/2018 23:00,39
14/01/2018 00:00,35.25
14/01/2018 01:00,32.75
14/01/2018 02:00,31.25
14/01/2018 03:00,27
14/01/2018 04:00,21.75
14/01/2018 05:00,25
14/01/2018 06:00,27
14/01/2018 07:00,25.25
14/01/2018 08:00,29.25
14/01/2018 09:00,30.25
14/01/2018 10:00,30.75
14/01/2018 11:00,29.5
14/01/2018 12:00,26.75
14/01/2018 13:00,25.25
14/01/2018 14:00,31.5
14/01/2018 15:00,30.25
14/01/2018 16:00,31
14/01/2018 17:00,30.75
14/01/2018 18:00,30
14/01/2018 19:00,31
14/01/2018 20:00,33
14/01/2018 21:00,30
14/01/2018 22:00,29.5
14/01/2018 23:00,26.75
15/01/2018 00:00,22.5
15/01/2018 01:00,20.25
15/01/2018 02:00,17
15/01/2018 03:00,13
15/01/2018 04:00,9.25
15/01/2018 05:00,7.666666667
15/01/2018 06:00,9.5
15/01/2018 07:00,11.5
15/01/2018 08:00,14.5
15/01/2018 09:00,17.75
15/01/2018 10:00,12.75
15/01/2018 11:00,9.25
15/01/2018 12:00,9.75
15/01/2018 13:00,9
15/01/2018 14:00,9
15/01/2018 15:00,10
15/01/2018 16:00,12
15/01/2018 17:00,10.75
15/01/2018 18:00,14.25
15/01/2018 19:00,12.5
15/01/2018 20:00,21
15/01/2018 21:00,16.5
15/01/2018 22:00,14
15/01/2018 23:00,10.75
16/01/2018 00:00,10.25
16/01/2018 01:00,11
16/01/2018 02:00,10
16/01/2018 03:00,7.75
16/01/2018 04:00,10.25
16/01/2018 05:00,10.5
16/01/2018 06:00,9.5
16/01/2018 07:00,11
16/01/2018 08:00,11.5
16/01/2018 09:00,14
16/01/2018 10:00,15.25
16/01/2018 11:00,11
16/01/2018 12:00,13.75
16/01/2018 13:00,13.75
16/01/2018 14:00,15.5
16/01/2018 15:00,13
16/01/2018 16:00,12.5
16/01/2018 17:00,16.5
16/01/2018 18:00,15
16/01/2018 19:00,15.5
16/01/2018 20:00,16.25
16/01/2018 21:00,13.25
16/01/2018 22:00,11.5
16/01/2018 23:00,13
17/01/2018 00:00,12
17/01/2018 01:00,10
17/01/2018 02:00,12
17/01/2018 03:00,37.5
17/01/2018 04:00,94.5
17/01/2018 05:00,8.5
17/01/2018 06:00,7.75
17/01/2018 07:00,10.25
17/01/2018 08:00,12
17/01/2018 09:00,14.5
17/01/2018 10:00,13.75
17/01/2018 11:00,15.75
17/01/2018 12:00,15
17/01/2018 13:00,14.5
17/01/2018 14:00,12.75
17/01/2018 15:00,12.75
17/01/2018 16:00,14
17/01/2018 17:00,12.75
17/01/2018 18:00,18
17/01/2018 19:00,16.25
17/01/2018 20:00,13.75
17/01/2018 21:00,19.5
17/01/2018 22:00,11.5
17/01/2018 23:00,9
18/01/2018 00:00,6
18/01/2018 01:00,6.5
18/01/2018 02:00,8.75
18/01/2018 03:00,11.5
18/01/2018 04:00,11.75
18/01/2018 05:00,8.666666667
18/01/2018 06:00,10.25
18/01/2018 07:00,11.25
18/01/2018 08:00,12
18/01/2018 09:00,11.5
18/01/2018 10:00,10
18/01/2018 11:00,10.5
18/01/2018 12:00,11.75
18/01/2018 13:00,11.5
18/01/2018 14:00,12.25
18/01/2018 15:00,10.75
18/01/2018 16:00,12.5
18/01/2018 17:00,13.25
18/01/2018 18:00,19
18/01/2018 19:00,16
18/01/2018 20:00,15.75
18/01/2018 21:00,14.75
18/01/2018 22:00,14.75
18/01/2018 23:00,15.5
19/01/2018 00:00,12.25
19/01/2018 01:00,15
19/01/2018 02:00,11.75
19/01/2018 03:00,9.75
19/01/2018 04:00,11.25
19/01/2018 05:00,23
19/01/2018 06:00,12
19/01/2018 07:00,13.5
19/01/2018 08:00,11.25
19/01/2018 09:00,16.75
19/01/2018 10:00,13.75
19/01/2018 11:00,16
19/01/2018 12:00,15.75
19/01/2018 13:00,14.5
19/01/2018 14:00,13.25
19/01/2018 15:00,14.5
19/01/2018 16:00,15
19/01/2018 17:00,14.25
19/01/2018 18:00,19.75
19/01/2018 19:00,15.25
19/01/2018 20:00,14.25
19/01/2018 21:00,17
19/01/2018 22:00,13.75
19/01/2018 23:00,12.5
20/01/2018 00:00,12
20/01/2018 01:00,14
20/01/2018 02:00,11.5
20/01/2018 03:00,12.5
20/01/2018 04:00,12.25
20/01/2018 05:00,16.5
20/01/2018 06:00,18
20/01/2018 07:00,18.5
20/01/2018 08:00,20
20/01/2018 09:00,20.25
20/01/2018 10:00,20.75
20/01/2018 11:00,20
20/01/2018 12:00,20.5
20/01/2018 13:00,22
20/01/2018 14:00,22.75
20/01/2018 15:00,26
20/01/2018 16:00,28.33333333
20/01/2018 17:00,30.75
20/01/2018 18:00,41
20/01/2018 19:00,35.25
20/01/2018 20:00,31
20/01/2018 21:00,42.5
20/01/2018 22:00,40
20/01/2018 23:00,34.5
21/01/2018 00:00,27
21/01/2018 01:00,26
21/01/2018 02:00,23.25
21/01/2018 03:00,24
21/01/2018 04:00,25.25
21/01/2018 05:00,27.5
21/01/2018 06:00,23.75
21/01/2018 07:00,25.25
21/01/2018 08:00,24.75
21/01/2018 09:00,27.5
21/01/2018 10:00,19
21/01/2018 11:00,16.75
21/01/2018 12:00,17.25
21/01/2018 13:00,13.5
21/01/2018 14:00,17.5
21/01/2018 15:00,16.75
21/01/2018 16:00,19
21/01/2018 17:00,19
21/01/2018 18:00,21.75
21/01/2018 19:00,27
21/01/2018 20:00,17.25
21/01/2018 21:00,14.5
21/01/2018 22:00,13.75
21/01/2018 23:00,15
22/01/2018 00:00,12
22/01/2018 01:00,12.5
22/01/2018 02:00,13.75
22/01/2018 03:00,13
22/01/2018 04:00,13.5
22/01/2018 05:00,15.75
22/01/2018 06:00,18
22/01/2018 07:00,17.5
22/01/2018 08:00,16
22/01/2018 09:00,15.66666667
22/01/2018 10:00,15.33333333
22/01/2018 11:00,16.5
22/01/2018 12:00,17
22/01/2018 13:00,13.25
22/01/2018 14:00,12
22/01/2018 15:00,14
22/01/2018 16:00,12.25
22/01/2018 17:00,17
22/01/2018 18:00,20.25
22/01/2018 19:00,20.5
22/01/2018 20:00,18.75
22/01/2018 21:00,19
22/01/2018 22:00,20
22/01/2018 23:00,13.5
23/01/2018 00:00,11.5
23/01/2018 01:00,10.25
23/01/2018 02:00,11
23/01/2018 03:00,11
23/01/2018 04:00,10.25
23/01/2018 05:00,8.25
23/01/2018 06:00,9.5
23/01/2018 07:00,11.75
23/01/2018 08:00,14.5
23/01/2018 09:00,15.5
23/01/2018 10:00,13.75
23/01/2018 11:00,13.25
23/01/2018 12:00,14.25
23/01/2018 13:00,16.25
23/01/2018 14:00,19.25
23/01/2018 15:00,16.5
23/01/2018 16:00,16
23/01/2018 17:00,19.75
23/01/2018 18:00,23.25
23/01/2018 19:00,26
23/01/2018 20:00,23.25
23/01/2018 21:00,25.5
23/01/2018 22:00,28.75
23/01/2018 23:00,22.75
24/01/2018 00:00,14.75
24/01/2018 01:00,10.66666667
24/01/2018 02:00,10
24/01/2018 03:00,10
24/01/2018 04:00,11
24/01/2018 05:00,12.75
24/01/2018 06:00,9
24/01/2018 07:00,9.75
24/01/2018 08:00,12.25
24/01/2018 09:00,13
24/01/2018 10:00,13
24/01/2018 11:00,12.5
24/01/2018 12:00,12.5
24/01/2018 13:00,17.75
24/01/2018 14:00,21
24/01/2018 15:00,22.75
24/01/2018 16:00,20
24/01/2018 17:00,23.75
24/01/2018 18:00,24.5
24/01/2018 19:00,20.25
24/01/2018 20:00,20.25
24/01/2018 21:00,19.5
24/01/2018 22:00,21.75
24/01/2018 23:00,15
25/01/2018 00:00,12.75
25/01/2018 01:00,6.25
25/01/2018 02:00,8
25/01/2018 03:00,10.75
25/01/2018 04:00,10
25/01/2018 05:00,10
25/01/2018 06:00,10.25
25/01/2018 07:00,11
25/01/2018 08:00,13.25
25/01/2018 09:00,18.25
25/01/2018 10:00,14.25
25/01/2018 11:00,16.75
25/01/2018 12:00,13
25/01/2018 13:00,13
25/01/2018 14:00,12.5
25/01/2018 15:00,10.75
25/01/2018 16:00,11.5
25/01/2018 17:00,17
25/01/2018 18:00,20
25/01/2018 19:00,21.66666667
25/01/2018 20:00,23
25/01/2018 21:00,17.5
25/01/2018 22:00,14.25
25/01/2018 23:00,15.75
26/01/2018 00:00,11
26/01/2018 01:00,16.75
26/01/2018 02:00,16.25
26/01/2018 03:00,17.5
26/01/2018 04:00,18.5
26/01/2018 05:00,17
26/01/2018 06:00,16.75
26/01/2018 07:00,17
26/01/2018 08:00,19.66666667
26/01/2018 09:00,18.5
26/01/2018 10:00,18.25
26/01/2018 11:00,22.5
26/01/2018 12:00,22.75
26/01/2018 13:00,23.75
26/01/2018 14:00,33.66666667
26/01/2018 15:00,23.75
26/01/2018 16:00,24.25
26/01/2018 17:00,36
26/01/2018 18:00,35.5
26/01/2018 19:00,44
26/01/2018 20:00,45
26/01/2018 21:00,41
26/01/2018 22:00,46
26/01/2018 23:00,43.33333333
27/01/2018 00:00,40.75
27/01/2018 01:00,29.25
27/01/2018 02:00,24
27/01/2018 03:00,24.75
27/01/2018 04:00,24
27/01/2018 05:00,13.5
27/01/2018 06:00,9.25
27/01/2018 07:00,11
27/01/2018 08:00,13.75
27/01/2018 09:00,13.5
27/01/2018 10:00,14.25
27/01/2018 11:00,11.25
27/01/2018 12:00,9.5
27/01/2018 13:00,11.75
27/01/2018 14:00,15
27/01/2018 15:00,17
27/01/2018 16:00,12.75
27/01/2018 17:00,10.5
27/01/2018 18:00,12.5
27/01/2018 19:00,6.5
27/01/2018 20:00,12
27/01/2018 21:00,16.75
27/01/2018 22:00,21
27/01/2018 23:00,17.33333333
28/01/2018 00:00,15.25
28/01/2018 01:00,13.75
28/01/2018 02:00,17.5
28/01/2018 03:00,20.75
28/01/2018 04:00,16
28/01/2018 05:00,13.25
28/01/2018 06:00,13.75
28/01/2018 07:00,12.33333333
28/01/2018 08:00,11.66666667
28/01/2018 09:00,13.75
28/01/2018 10:00,14.5
28/01/2018 11:00,9.5
28/01/2018 12:00,8.25
28/01/2018 13:00,9
28/01/2018 14:00,9.75
28/01/2018 15:00,11
28/01/2018 16:00,8.25
28/01/2018 17:00,9.25
28/01/2018 18:00,11
28/01/2018 19:00,14.25
28/01/2018 20:00,14
28/01/2018 21:00,11.75
28/01/2018 22:00,14
28/01/2018 23:00,12.5
29/01/2018 00:00,8.5
29/01/2018 01:00,9.25
29/01/2018 02:00,6.5
29/01/2018 03:00,5.5
29/01/2018 04:00,7
29/01/2018 05:00,7.25
29/01/2018 06:00,7.75
29/01/2018 07:00,7.25
29/01/2018 08:00,9
29/01/2018 09:00,11.75
29/01/2018 10:00,11.75
29/01/2018 11:00,14
29/01/2018 12:00,14
29/01/2018 13:00,14
29/01/2018 14:00,13.75
29/01/2018 15:00,13.25
29/01/2018 16:00,14.25
29/01/2018 17:00,14.75
29/01/2018 18:00,13.5
29/01/2018 19:00,14.5
29/01/2018 20:00,20.75
29/01/2018 21:00,18.75
29/01/2018 22:00,22.25
29/01/2018 23:00,15.25
30/01/2018 00:00,11.75
30/01/2018 01:00,15.33333333
30/01/2018 02:00,12.75
30/01/2018 03:00,15
30/01/2018 04:00,15
30/01/2018 05:00,15.75
30/01/2018 06:00,18.75
30/01/2018 07:00,21.75
30/01/2018 08:00,23.75
30/01/2018 09:00,22
30/01/2018 10:00,19.25
30/01/2018 11:00,19.75
30/01/2018 12:00,18.75
30/01/2018 13:00,17.25
30/01/2018 14:00,14.75
30/01/2018 15:00,13.75
30/01/2018 16:00,15
30/01/2018 17:00,21
30/01/2018 18:00,21.25
30/01/2018 19:00,21
30/01/2018 20:00,17.75
30/01/2018 21:00,17.75
30/01/2018 22:00,18.5
30/01/2018 23:00,15.25
31/01/2018 00:00,18
31/01/2018 01:00,14.5
31/01/2018 02:00,12.75
31/01/2018 03:00,12.33333333
31/01/2018 04:00,11.5
31/01/2018 05:00,7.25
31/01/2018 06:00,7.333333333
31/01/2018 07:00,6.75
31/01/2018 08:00,10
31/01/2018 09:00,12.5
31/01/2018 10:00,10.75
31/01/2018 11:00,12.25
31/01/2018 12:00,17.25
31/01/2018 13:00,12.25
31/01/2018 14:00,12.5
31/01/2018 15:00,10.5
31/01/2018 16:00,9.75
31/01/2018 17:00,11.66666667
31/01/2018 18:00,11
31/01/2018 19:00,11.5
31/01/2018 20:00,14.5
31/01/2018 21:00,17.5
31/01/2018 22:00,13.25
31/01/2018 23:00,13.25
01/02/2018 00:00,11
01/02/2018 01:00,10.75
01/02/2018 02:00,9.75
01/02/2018 03:00,9.75
01/02/2018 04:00,11
01/02/2018 05:00,7.5
01/02/2018 06:00,6.75
01/02/2018 07:00,10
01/02/2018 08:00,12.75
01/02/2018 09:00,12
01/02/2018 10:00,13.25
01/02/2018 11:00,15
01/02/2018 12:00,9.25
01/02/2018 13:00,9.5
01/02/2018 14:00,10.25
01/02/2018 15:00,15.25
01/02/2018 16:00,11
01/02/2018 17:00,13.75
01/02/2018 18:00,13.75
01/02/2018 19:00,16.75
01/02/2018 20:00,17
01/02/2018 21:00,10.75
01/02/2018 22:00,10.5
01/02/2018 23:00,12.5
02/02/2018 00:00,12.75
02/02/2018 01:00,8.75
02/02/2018 02:00,7.75
02/02/2018 03:00,8.25
02/02/2018 04:00,11
02/02/2018 05:00,8.25
02/02/2018 06:00,9.25
02/02/2018 07:00,10.25
02/02/2018 08:00,12
02/02/2018 09:00,13.5
02/02/2018 10:00,8.666666667
02/02/2018 11:00,8.75
02/02/2018 12:00,11.25
02/02/2018 13:00,10.75
02/02/2018 14:00,9.5
02/02/2018 15:00,18.25
02/02/2018 16:00,22.75
02/02/2018 17:00,25.75
02/02/2018 18:00,29.5
02/02/2018 19:00,36.25
02/02/2018 20:00,42
02/02/2018 21:00,37.25
02/02/2018 22:00,32
02/02/2018 23:00,31
03/02/2018 00:00,27
03/02/2018 01:00,24
03/02/2018 02:00,25.25
03/02/2018 03:00,27.25
03/02/2018 04:00,21.25
03/02/2018 05:00,18.25
03/02/2018 06:00,17.25
03/02/2018 07:00,20.5
03/02/2018 08:00,20
03/02/2018 09:00,21.75
03/02/2018 10:00,18.5
03/02/2018 11:00,17
03/02/2018 12:00,11.5
03/02/2018 13:00,22
03/02/2018 14:00,21
03/02/2018 15:00,18
03/02/2018 16:00,20.5
03/02/2018 17:00,29
03/02/2018 18:00,31.25
03/02/2018 19:00,28
03/02/2018 20:00,25.25
03/02/2018 21:00,25.75
03/02/2018 22:00,23.5
03/02/2018 23:00,19.5
04/02/2018 00:00,18.75
04/02/2018 01:00,13
04/02/2018 02:00,14
04/02/2018 03:00,9.5
04/02/2018 04:00,12.75
04/02/2018 05:00,9.75
04/02/2018 06:00,11.75
04/02/2018 07:00,11.5
04/02/2018 08:00,14.25
04/02/2018 09:00,17
04/02/2018 10:00,13.75
04/02/2018 11:00,14
04/02/2018 12:00,15.5
04/02/2018 13:00,11.25
04/02/2018 14:00,13.25
04/02/2018 15:00,16.5
04/02/2018 16:00,16.5
04/02/2018 17:00,20.5
04/02/2018 18:00,21
04/02/2018 19:00,29.25
04/02/2018 20:00,34
04/02/2018 21:00,25
04/02/2018 22:00,16.5
04/02/2018 23:00,17.5
05/02/2018 00:00,14.5
05/02/2018 01:00,9.75
05/02/2018 02:00,9
05/02/2018 03:00,10
05/02/2018 04:00,12.25
05/02/2018 05:00,10.25
05/02/2018 06:00,11.5
05/02/2018 07:00,13.25
05/02/2018 08:00,14.75
05/02/2018 09:00,16.75
05/02/2018 10:00,16.5
05/02/2018 11:00,17.5
05/02/2018 12:00,17
05/02/2018 13:00,19.25
05/02/2018 14:00,18
05/02/2018 15:00,19.75
05/02/2018 16:00,16.75
05/02/2018 17:00,20
05/02/2018 18:00,23.5
05/02/2018 19:00,25.25
05/02/2018 20:00,27.25
05/02/2018 21:00,31
05/02/2018 22:00,30.25
05/02/2018 23:00,29.25
06/02/2018 00:00,29.75
06/02/2018 01:00,21.25
06/02/2018 02:00,25
06/02/2018 03:00,24.5
06/02/2018 04:00,22.5
06/02/2018 05:00,21.25
06/02/2018 06:00,22.25
06/02/2018 07:00,22.5
06/02/2018 08:00,22.25
06/02/2018 09:00,25.25
06/02/2018 10:00,23.25
06/02/2018 11:00,23.75
06/02/2018 12:00,23.75
06/02/2018 13:00,26.5
06/02/2018 14:00,29.25
06/02/2018 15:00,31
06/02/2018 16:00,24.25
06/02/2018 17:00,22.25
06/02/2018 18:00,21.25
06/02/2018 19:00,17.25
06/02/2018 20:00,21
06/02/2018 21:00,20.25
06/02/2018 22:00,17.25
06/02/2018 23:00,14
07/02/2018 00:00,10.5
07/02/2018 01:00,9.25
07/02/2018 02:00,10.25
07/02/2018 03:00,10.5
07/02/2018 04:00,8.75
07/02/2018 05:00,8.75
07/02/2018 06:00,10.75
07/02/2018 07:00,10.5
07/02/2018 08:00,14.75
07/02/2018 09:00,23.5
07/02/2018 10:00,25.5
07/02/2018 11:00,23.5
07/02/2018 12:00,12.75
07/02/2018 13:00,13
07/02/2018 14:00,15.75
07/02/2018 15:00,14.5
07/02/2018 16:00,13.75
07/02/2018 17:00,16.5
07/02/2018 18:00,18.75
07/02/2018 19:00,20.75
07/02/2018 20:00,21
07/02/2018 21:00,23.5
07/02/2018 22:00,23
07/02/2018 23:00,24
08/02/2018 00:00,20.75
08/02/2018 01:00,18
08/02/2018 02:00,20
08/02/2018 03:00,16.75
08/02/2018 04:00,21.5
08/02/2018 05:00,32.25
08/02/2018 06:00,22.25
08/02/2018 07:00,43.25
08/02/2018 08:00,40.25
08/02/2018 09:00,36.75
08/02/2018 10:00,32.5
08/02/2018 11:00,29.5
08/02/2018 12:00,24
08/02/2018 13:00,22
08/02/2018 14:00,25.25
08/02/2018 15:00,24.25
08/02/2018 16:00,18.25
08/02/2018 17:00,15.75
08/02/2018 18:00,16
08/02/2018 19:00,18.25
08/02/2018 20:00,16.5
08/02/2018 21:00,18.25
08/02/2018 22:00,19
08/02/2018 23:00,18.75
09/02/2018 00:00,16.5
09/02/2018 01:00,12.25
09/02/2018 02:00,14
09/02/2018 03:00,16
09/02/2018 04:00,14.5
09/02/2018 05:00,16.25
09/02/2018 06:00,7.75
09/02/2018 07:00,8.25
09/02/2018 08:00,12
09/02/2018 09:00,12.25
09/02/2018 10:00,12.5
09/02/2018 11:00,10.75
09/02/2018 12:00,9.75
09/02/2018 13:00,8.5
09/02/2018 14:00,8
09/02/2018 15:00,11.5
09/02/2018 16:00,13
09/02/2018 17:00,13
09/02/2018 18:00,15.25
09/02/2018 19:00,22.5
09/02/2018 20:00,23.5
09/02/2018 21:00,23.5
09/02/2018 22:00,27.75
09/02/2018 23:00,23.25
10/02/2018 00:00,12.75
10/02/2018 01:00,15
10/02/2018 02:00,15.5
10/02/2018 03:00,18.25
10/02/2018 04:00,20.5
10/02/2018 05:00,14.75
10/02/2018 06:00,11.5
10/02/2018 07:00,12.5
10/02/2018 08:00,12
10/02/2018 09:00,15.25
10/02/2018 10:00,14.75
10/02/2018 11:00,11
10/02/2018 12:00,10.5
10/02/2018 13:00,11
10/02/2018 14:00,16.75
10/02/2018 15:00,15
10/02/2018 16:00,12.5
10/02/2018 17:00,17
10/02/2018 18:00,29
10/02/2018 19:00,36.25
10/02/2018 20:00,27.25
10/02/2018 21:00,15
10/02/2018 22:00,11.25
10/02/2018 23:00,9.25
11/02/2018 00:00,10
11/02/2018 01:00,10.75
11/02/2018 02:00,12.25
11/02/2018 03:00,9.5
11/02/2018 04:00,8.25
11/02/2018 05:00,8.75
11/02/2018 06:00,9
11/02/2018 07:00,10.75
11/02/2018 08:00,8.25
11/02/2018 09:00,12.5
11/02/2018 10:00,13.5
11/02/2018 11:00,12
11/02/2018 12:00,11.5
11/02/2018 13:00,10.75
11/02/2018 14:00,12.75
11/02/2018 15:00,12.25
11/02/2018 16:00,12
11/02/2018 17:00,9.25
11/02/2018 18:00,11.25
11/02/2018 19:00,14.75
11/02/2018 20:00,13.5
11/02/2018 21:00,11.5
11/02/2018 22:00,10.5
11/02/2018 23:00,11.75
12/02/2018 00:00,10
12/02/2018 01:00,8
12/02/2018 02:00,11.25
12/02/2018 03:00,11
12/02/2018 04:00,8.5
12/02/2018 05:00,7.5
12/02/2018 06:00,10.25
12/02/2018 07:00,13.75
12/02/2018 08:00,14
12/02/2018 09:00,16.5
12/02/2018 10:00,15.25
12/02/2018 11:00,16.25
12/02/2018 12:00,15.75
12/02/2018 13:00,12
12/02/2018 14:00,13
12/02/2018 15:00,16.25
12/02/2018 16:00,17
12/02/2018 17:00,17.5
12/02/2018 18:00,16.75
12/02/2018 19:00,13.25
12/02/2018 20:00,21.25
12/02/2018 21:00,15.25
12/02/2018 22:00,12
12/02/2018 23:00,9.5
13/02/2018 00:00,10.25
13/02/2018 01:00,7.75
13/02/2018 02:00,8.25
13/02/2018 03:00,11.75
13/02/2018 04:00,10.75
13/02/2018 05:00,9.75
13/02/2018 06:00,8.75
13/02/2018 07:00,8.75
13/02/2018 08:00,11
13/02/2018 09:00,11
13/02/2018 10:00,11.75
13/02/2018 11:00,14